When you browse on this site, cookies collect data to enhance your experience and personalize the content and advertising you see.
Visit our Privacy Policy to learn more. By continuing to use the site, you agree to this use of cookies and data.
  • En España
  • Lista de países
  • Para 7 días
  • Temperatura del agua
  • Mapa Satelital
  • El tiempo en el mapa
  • Informadores
  • user-avatar
    Iniciar sesión

    Tiempo cada hora Karlovac

    Hoy, 22 Abril, Lunes

    Tiempo Temperatura Precipitaciones Viento Presión Humedad
    00:00 +11°C° 0 mm 1 mps 742 mmHg 67%
    01:00 +10°C° 0 mm 1 mps 742 mmHg 68%
    02:00 +10°C° 0 mm 1 mps 742 mmHg 71%
    03:00 +10°C° 0 mm 1 mps 741 mmHg 74%
    04:00 +10°C° 0 mm 1 mps 741 mmHg 77%
    05:00 +11°C° 0 mm 1 mps 741 mmHg 76%
    06:00 +12°C° 0 mm 1 mps 740 mmHg 74%
    07:00 +13°C° 0 mm 1 mps 740 mmHg 72%
    08:00 +16°C° 0 mm 1 mps 740 mmHg 62%
    09:00 +19°C° 0 mm 1 mps 740 mmHg 52%
    10:00 +20°C° 0 mm 2 mps 740 mmHg 43%
    11:00 +21°C° 0 mm 2 mps 739 mmHg 41%
    12:00 +23°C° 0 mm 2 mps 739 mmHg 39%
    13:00 +23°C° 0 mm 2 mps 738 mmHg 38%
    14:00 +23°C° 0 mm 2 mps 738 mmHg 41%
    15:00 +23°C° 0 mm 2 mps 737 mmHg 44%
    16:00 +21°C° 0 mm 2 mps 737 mmHg 47%
    17:00 +19°C° 0 mm 2 mps 736 mmHg 55%
    18:00 +17°C° 0 mm 2 mps 736 mmHg 64%
    19:00 +15°C° 0 mm 1 mps 736 mmHg 73%
    20:00 +14°C° 0 mm 1 mps 736 mmHg 74%
    21:00 +14°C° 0 mm 1 mps 736 mmHg 75%
    22:00 +13°C° 0 mm 1 mps 736 mmHg 76%
    23:00 +12°C° 0.2 mm 0 mps 736 mmHg 77%

    Mañana, 23 Abril, Martes

    Tiempo Temperatura Precipitaciones Viento Presión Humedad
    00:00 +11°C° 0.2 mm 0 mps 736 mmHg 78%
    01:00 +11°C° 0.2 mm 0 mps 735 mmHg 80%
    02:00 +11°C° 1.3 mm 0 mps 735 mmHg 85%
    03:00 +10°C° 1.3 mm 0 mps 734 mmHg 90%
    04:00 +10°C° 1.3 mm 0 mps 734 mmHg 95%
    05:00 +11°C° 0.2 mm 1 mps 734 mmHg 95%
    06:00 +11°C° 0.2 mm 1 mps 734 mmHg 96%
    07:00 +11°C° 0.2 mm 1 mps 734 mmHg 96%
    08:00 +12°C° 0.1 mm 1 mps 734 mmHg 94%
    09:00 +13°C° 0.1 mm 1 mps 734 mmHg 92%
    10:00 +13°C° 0.1 mm 1 mps 734 mmHg 91%
    11:00 +14°C° 0.2 mm 1 mps 734 mmHg 88%
    12:00 +15°C° 0.2 mm 1 mps 734 mmHg 86%
    13:00 +15°C° 0.2 mm 1 mps 734 mmHg 83%
    14:00 +15°C° 2 mm 1 mps 734 mmHg 87%
    15:00 +15°C° 2 mm 1 mps 733 mmHg 90%
    16:00 +14°C° 2 mm 0 mps 733 mmHg 93%
    17:00 +13°C° 0.9 mm 0 mps 733 mmHg 94%
    18:00 +14°C° 0.9 mm 1 mps 733 mmHg 95%
    19:00 +13°C° 0.9 mm 1 mps 734 mmHg 96%
    20:00 +13°C° 0.2 mm 1 mps 734 mmHg 96%
    21:00 +13°C° 0.2 mm 1 mps 735 mmHg 95%
    22:00 +13°C° 0.2 mm 1 mps 735 mmHg 95%
    23:00 +13°C° 0 mm 1 mps 736 mmHg 94%

    Pasado mañana, 24 Abril, Miércoles

    Tiempo Temperatura Precipitaciones Viento Presión Humedad
    00:00 +13°C° 0 mm 2 mps 736 mmHg 93%
    01:00 +13°C° 0 mm 2 mps 737 mmHg 92%
    02:00 +13°C° 0 mm 2 mps 737 mmHg 92%
    03:00 +13°C° 0 mm 2 mps 737 mmHg 92%
    04:00 +13°C° 0 mm 2 mps 737 mmHg 93%
    05:00 +14°C° 0 mm 2 mps 738 mmHg 91%
    06:00 +15°C° 0 mm 2 mps 738 mmHg 89%
    07:00 +16°C° 0 mm 2 mps 739 mmHg 87%
    08:00 +17°C° 0 mm 3 mps 739 mmHg 78%
    09:00 +19°C° 0 mm 3 mps 740 mmHg 69%
    10:00 +20°C° 0 mm 4 mps 741 mmHg 61%
    11:00 +21°C° 0.1 mm 4 mps 741 mmHg 59%
    12:00 +21°C° 0.1 mm 5 mps 741 mmHg 57%
    13:00 +22°C° 0.1 mm 5 mps 741 mmHg 55%
    14:00 +22°C° 0 mm 4 mps 741 mmHg 56%
    15:00 +22°C° 0 mm 4 mps 741 mmHg 56%
    16:00 +21°C° 0 mm 4 mps 741 mmHg 57%
    17:00 +20°C° 0 mm 3 mps 741 mmHg 66%
    18:00 +18°C° 0 mm 2 mps 741 mmHg 75%
    19:00 +16°C° 0 mm 1 mps 741 mmHg 84%
    20:00 +15°C° 0 mm 1 mps 741 mmHg 88%
    21:00 +14°C° 0 mm 1 mps 742 mmHg 91%
    22:00 +13°C° 0 mm 1 mps 742 mmHg 94%
    23:00 +13°C° 0 mm 1 mps 742 mmHg 94%

    25 Abril, Jueves

    Tiempo Temperatura Precipitaciones Viento Presión Humedad
    00:00 +13°C° 0 mm 1 mps 742 mmHg 94%
    01:00 +12°C° 0 mm 1 mps 742 mmHg 94%
    02:00 +12°C° 0 mm 1 mps 742 mmHg 94%
    03:00 +12°C° 0 mm 1 mps 742 mmHg 94%
    04:00 +12°C° 0 mm 1 mps 742 mmHg 94%
    05:00 +13°C° 0 mm 1 mps 742 mmHg 89%
    06:00 +15°C° 0 mm 1 mps 743 mmHg 84%
    07:00 +16°C° 0 mm 1 mps 743 mmHg 79%
    08:00 +19°C° 0 mm 1 mps 743 mmHg 70%
    09:00 +22°C° 0 mm 1 mps 743 mmHg 62%
    10:00 +24°C° 0 mm 2 mps 744 mmHg 54%
    11:00 +25°C° 0 mm 2 mps 744 mmHg 51%
    12:00 +26°C° 0 mm 3 mps 743 mmHg 48%
    13:00 +26°C° 0 mm 3 mps 743 mmHg 45%
    14:00 +26°C° 0 mm 3 mps 743 mmHg 47%
    15:00 +26°C° 0 mm 3 mps 742 mmHg 48%
    16:00 +26°C° 0 mm 3 mps 742 mmHg 50%
    17:00 +23°C° 0 mm 2 mps 742 mmHg 59%
    18:00 +20°C° 0 mm 2 mps 742 mmHg 69%
    19:00 +19°C° 0 mm 1 mps 742 mmHg 79%
    20:00 +16°C° 0 mm 1 mps 742 mmHg 82%
    21:00 +15°C° 0 mm 1 mps 742 mmHg 85%
    22:00 +14°C° 0 mm 1 mps 743 mmHg 89%
    23:00 +14°C° 0 mm 1 mps 742 mmHg 88%

    26 Abril, Viernes

    Tiempo Temperatura Precipitaciones Viento Presión Humedad
    00:00 +14°C° 0 mm 1 mps 742 mmHg 88%
    01:00 +13°C° 0 mm 1 mps 742 mmHg 87%
    02:00 +13°C° 0 mm 1 mps 741 mmHg 86%
    03:00 +13°C° 0 mm 1 mps 741 mmHg 85%
    04:00 +12°C° 0 mm 1 mps 741 mmHg 84%
    05:00 +14°C° 0 mm 1 mps 741 mmHg 80%
    06:00 +15°C° 0 mm 1 mps 741 mmHg 75%
    07:00 +18°C° 0 mm 1 mps 741 mmHg 71%
    08:00 +19°C° 0 mm 2 mps 741 mmHg 64%
    09:00 +21°C° 0 mm 3 mps 741 mmHg 58%
    10:00 +25°C° 0 mm 4 mps 741 mmHg 51%
    11:00 +25°C° 0 mm 5 mps 741 mmHg 51%
    12:00 +25°C° 0 mm 5 mps 741 mmHg 50%
    13:00 +24°C° 0 mm 6 mps 740 mmHg 50%
    14:00 +23°C° 0 mm 5 mps 740 mmHg 50%
    15:00 +22°C° 0 mm 5 mps 740 mmHg 51%
    16:00 +21°C° 0 mm 4 mps 739 mmHg 51%
    17:00 +20°C° 0 mm 4 mps 739 mmHg 58%
    18:00 +18°C° 0 mm 3 mps 740 mmHg 65%
    19:00 +16°C° 0 mm 2 mps 740 mmHg 72%
    20:00 +15°C° 0.2 mm 2 mps 740 mmHg 75%
    21:00 +14°C° 0.2 mm 2 mps 741 mmHg 79%
    22:00 +14°C° 0.2 mm 2 mps 741 mmHg 82%
    23:00 +13°C° 0.1 mm 1 mps 741 mmHg 84%

    27 Abril, Sábado

    Tiempo Temperatura Precipitaciones Viento Presión Humedad
    00:00 +12°C° 0.1 mm 1 mps 742 mmHg 87%
    01:00 +12°C° 0.1 mm 1 mps 742 mmHg 89%
    02:00 +11°C° 0.1 mm 1 mps 743 mmHg 90%
    03:00 +11°C° 0.1 mm 1 mps 743 mmHg 91%
    04:00 +10°C° 0.1 mm 2 mps 743 mmHg 92%
    05:00 +10°C° 0 mm 2 mps 744 mmHg 90%
    06:00 +11°C° 0 mm 1 mps 744 mmHg 88%
    07:00 +11°C° 0 mm 1 mps 745 mmHg 86%
    08:00 +13°C° 0 mm 1 mps 745 mmHg 75%
    09:00 +15°C° 0 mm 1 mps 745 mmHg 64%
    10:00 +19°C° 0 mm 1 mps 746 mmHg 53%
    11:00 +18°C° 0 mm 2 mps 745 mmHg 51%
    12:00 +19°C° 0 mm 2 mps 745 mmHg 49%
    13:00 +19°C° 0 mm 2 mps 745 mmHg 47%
    14:00 +19°C° 0 mm 2 mps 745 mmHg 47%
    15:00 +20°C° 0 mm 1 mps 745 mmHg 47%
    16:00 +20°C° 0 mm 1 mps 745 mmHg 47%
    17:00 +18°C° 0 mm 1 mps 745 mmHg 54%
    18:00 +16°C° 0 mm 1 mps 745 mmHg 61%
    19:00 +13°C° 0 mm 0 mps 745 mmHg 68%
    20:00 +13°C° 0 mm 1 mps 746 mmHg 70%
    21:00 +12°C° 0 mm 1 mps 746 mmHg 72%
    22:00 +11°C° 0 mm 1 mps 746 mmHg 74%
    23:00 +11°C° 0 mm 1 mps 746 mmHg 75%
    Mostrar más